Terminal Aerodrome Forecast
Issued by NWS Topeka, KS

Home | Current Version | Previous Version | Graphics & Text | Print | Product List | Glossary On
Versions: 1 2 3 4 5 6 7 8 9 10 11 12 13 14 15 16 17 18 19 20 21 22
000
FTUS43 KTOP 250500
TAFTOP
TAF
KTOP 250520Z 2506/2606 17008KT P6SM VCTS SCT100CB
     FM250800 15008KT P6SM FEW060 BKN100=

USA.gov is the U.S. government's official web portal to all federal, state and local government web resources and services.